DL1GHN-6 Weather Reports


time (UTC)temp
F
wind
direction
speed
knots
gust
knots
rain 1hr
in
rain 24hr
in
rain mn
in
humidity
%
barometer
mb
20260506174943 53 146 5.2 11.3 0.04 0.10 0.10 88 1008.6
20260506174443 53 180 4.3 10.4 0.03 0.09 0.09 88 1008.5
20260506173944 53 141 4.3 8.7 0.03 0.09 0.09 87 1008.4
20260506173443 53 178 6.1 11.3 0.03 0.09 0.09 87 1008.4
20260506172945 53 186 2.6 8.7 0.04 0.09 0.09 88 1008.4
20260506172444 53 190 2.6 8.7 0.03 0.09 0.09 87 1008.3
20260506171945 53 170 5.2 8.7 0.03 0.09 0.09 87 1008.3
20260506171444 54 113 5.2 10.4 0.02 0.08 0.08 87 1008.2
20260506170945 54 186 6.1 7.8 0.02 0.08 0.08 87 1008.2
20260506170445 54 187 6.1 12.2 0.02 0.08 0.08 86 1008.3
20260506165945 54 167 4.3 7.8 0.02 0.07 0.07 87 1008.3
20260506165445 54 178 4.3 7.0 0.02 0.07 0.07 86 1008.2
20260506164944 54 174 4.3 8.7 0.01 0.06 0.06 86 1008.3
20260506164444 54 197 4.3 10.4 0.01 0.06 0.06 86 1008.2
20260506163944 54 166 4.3 7.8 0.01 0.06 0.06 86 1008.3
20260506163443 54 190 3.5 8.7 0.01 0.06 0.06 86 1008.2
20260506162944 54 166 5.2 9.6 0.00 0.06 0.06 86 1008.2
20260506162444 54 146 4.3 9.6 0.00 0.06 0.06 86 1008.2
20260506161943 54 180 5.2 8.7 0.00 0.06 0.06 86 1008.1
20260506161443 54 176 3.5 9.6 0.01 0.06 0.06 86 1008.2
20260506160944 55 167 1.7 8.7 0.01 0.06 0.06 86 1008.2
20260506160443 55 150 6.1 9.6 0.01 0.06 0.06 86 1008.2
20260506155944 55 144 4.3 9.6 0.01 0.06 0.06 86 1008.2
20260506155443 55 194 4.3 7.8 0.01 0.06 0.06 86 1008.2
20260506154945 55 193 4.3 7.8 0.01 0.06 0.06 86 1008.1
20260506154445 55 198 5.2 7.8 0.02 0.06 0.06 86 1008.1
20260506153945 55 207 4.3 11.3 0.02 0.06 0.06 86 1008.1
20260506153444 55 196 5.2 8.7 0.02 0.06 0.06 86 1008.1
20260506152944 55 68 4.3 9.6 0.02 0.06 0.06 86 1008.1
20260506152445 55 185 7.8 13.0 0.02 0.06 0.06 86 1008.1
20260506151945 55 115 3.5 11.3 0.02 0.06 0.06 87 1008.0
20260506151444 55 211 5.2 8.7 0.02 0.06 0.05 87 1008.0
20260506150945 55 210 4.3 8.7 0.02 0.06 0.05 87 1008.0
20260506150443 55 205 4.3 8.7 0.02 0.06 0.05 87 1008.0
20260506145943 55 208 3.5 7.8 0.02 0.27 0.05 87 1008.0
20260506145444 55 211 4.3 7.8 0.02 0.27 0.05 86 1007.9
20260506144943 55 189 4.3 9.6 0.02 0.27 0.05 86 1007.9
20260506144444 56 212 4.3 7.8 0.01 0.26 0.04 85 1007.9
20260506143943 56 177 5.2 10.4 0.01 0.26 0.04 84 1007.9
20260506143443 56 170 3.5 8.7 0.01 0.26 0.04 83 1007.9
20260506142945 56 191 3.5 9.6 0.01 0.26 0.04 82 1007.8
20260506142443 56 176 3.5 6.1 0.01 0.26 0.04 82 1007.7
20260506141944 57 173 3.5 8.7 0.01 0.26 0.04 81 1007.6
20260506141444 57 227 3.5 10.4 0.00 0.25 0.03 80 1007.6
20260506140945 58 229 5.2 10.4 0.01 0.25 0.03 80 1007.4
20260506140445 58 217 5.2 10.4 0.02 0.25 0.03 79 1007.2
20260506135944 58 205 5.2 13.9 0.02 0.25 0.03 79 1007.1
20260506135444 58 142 5.2 10.4 0.02 0.25 0.03 79 1007.0
20260506134944 58 165 4.3 8.7 0.03 0.25 0.03 82 1007.0
20260506134443 58 183 1.7 6.1 0.03 0.25 0.03 84 1007.0
20260506133944 58 208 3.5 6.1 0.03 0.25 0.03 84 1007.0
20260506133444 58 190 3.5 6.1 0.03 0.25 0.03 84 1007.0
20260506132944 58 227 2.6 10.4 0.03 0.25 0.03 83 1007.0
20260506132445 58 194 4.3 7.0 0.03 0.25 0.03 83 1006.9
20260506131945 58 194 4.3 9.6 0.03 0.25 0.03 83 1006.8
20260506131443 58 196 3.5 6.1 0.03 0.25 0.03 84 1006.7
20260506130943 58 143 3.5 7.8 0.02 0.24 0.02 83 1006.7
20260506130444 59 188 3.5 8.7 0.02 0.24 0.02 82 1006.7
20260506125944 59 165 4.3 11.3 0.01 0.23 0.01 80 1006.7
20260506125444 60 148 4.3 10.4 0.01 0.23 0.01 79 1006.6
20260506124945 60 169 5.2 11.3 0.00 0.22 0.00 79 1006.6
20260506124445 60 229 4.3 6.1 0.00 0.22 0.00 79 1006.5
20260506123944 61 184 6.1 8.7 0.00 0.22 0.00 78 1006.5
20260506123444 61 256 5.2 8.7 0.00 0.22 0.00 77 1006.5
20260506122945 61 221 3.5 8.7 0.00 0.22 0.00 79 1006.5
20260506122445 61 235 4.3 6.1 0.00 0.22 0.00 81 1006.5
20260506121945 61 242 5.2 7.8 0.00 0.22 0.00 80 1006.4
20260506121444 61 198 4.3 11.3 0.00 0.22 0.00 78 1006.4
20260506120944 62 235 6.1 11.3 0.00 0.22 0.00 79 1006.4
20260506120443 61 224 3.5 8.7 0.00 0.22 0.00 80 1006.4
20260506115944 62 170 5.2 9.6 0.00 0.22 0.00 76 1006.4
20260506115444 62 125 5.2 9.6 0.00 0.22 0.00 75 1006.3
20260506114944 62 231 4.3 8.7 0.00 0.22 0.00 74 1006.3
20260506114444 63 281 5.2 9.6 0.00 0.22 0.00 73 1006.3
20260506113737 63 284 2.6 7.8 0.00 0.22 0.00 72 1006.2
20260506113237 63 185 5.2 8.7 0.00 0.22 0.00 71 1006.2
20260506112736 63 238 3.5 7.8 0.00 0.22 0.00 71 1006.3
20260506112237 63 196 4.3 7.8 0.00 0.22 0.00 70 1006.2
20260506111737 63 172 2.6 5.2 0.00 0.22 0.00 71 1006.3
20260506111237 63 163 2.6 6.1 0.00 0.22 0.00 70 1006.3
20260506110737 63 202 2.6 5.2 0.00 0.22 0.00 72 1006.3
20260506110237 63 243 3.5 5.2 0.00 0.22 0.00 70 1006.3
20260506105737 63 215 1.7 3.5 0.00 0.22 0.00 70 1006.3
20260506105237 63 232 0.9 4.3 0.00 0.22 0.00 70 1006.4
20260506104738 63 207 0.9 5.2 0.00 0.22 0.00 70 1006.3
20260506104237 63 281 2.6 5.2 0.00 0.22 0.00 71 1006.4
20260506103738 63 263 1.7 7.0 0.00 0.22 0.00 70 1006.4
20260506103238 63 286 2.6 6.1 0.00 0.22 0.00 70 1006.4
20260506102737 63 285 3.5 5.2 0.00 0.22 0.00 71 1006.4
20260506102237 63 267 2.6 5.2 0.00 0.22 0.00 69 1006.3
20260506101738 63 285 4.3 7.0 0.00 0.22 0.00 69 1006.4
20260506101237 63 257 2.6 6.1 0.00 0.22 0.00 68 1006.4
20260506100736 64 235 1.7 4.3 0.00 0.22 0.00 70 1006.4
20260506100236 63 219 1.7 5.2 0.00 0.22 0.00 69 1006.5
20260506095737 63 231 3.5 7.0 0.00 0.22 0.00 70 1006.5
20260506095236 62 232 0.9 6.1 0.00 0.22 0.00 73 1006.5
20260506094736 63 190 1.7 4.3 0.00 0.22 0.00 72 1006.4
20260506094238 62 171 1.7 4.3 0.00 0.22 0.00 71 1006.5
20260506093737 63 217 2.6 5.2 0.00 0.22 0.00 71 1006.5
20260506093238 63 241 2.6 5.2 0.00 0.22 0.00 71 1006.5
20260506092737 63 226 3.5 6.1 0.00 0.22 0.00 70 1006.5
20260506092243 63 225 1.7 6.1 0.00 0.22 0.00 71 1006.4
20260506091743 63 156 1.7 5.2 0.00 0.22 0.00 71 1006.4
20260506091241 63 219 4.3 5.2 0.00 0.22 0.00 71 1006.4
20260506090742 63 219 2.6 5.2 0.00 0.22 0.00 70 1006.3
20260506090241 63 236 3.5 7.0 0.00 0.22 0.00 71 1006.4
20260506085741 62 159 2.6 6.1 0.00 0.22 0.00 71 1006.3
20260506085241 62 160 3.5 5.2 0.00 0.22 0.00 70 1006.2
20260506084742 62 214 3.5 6.1 0.00 0.22 0.00 70 1006.3
20260506084241 62 299 2.6 6.1 0.00 0.22 0.00 73 1006.4
20260506083742 62 172 3.5 7.0 0.00 0.22 0.00 73 1006.3
20260506083242 62 154 3.5 6.1 0.00 0.22 0.00 73 1006.3
20260506082741 62 180 2.6 4.3 0.00 0.22 0.00 73 1006.3
20260506082241 62 159 2.6 5.2 0.00 0.22 0.00 73 1006.3
20260506081742 62 240 2.6 7.8 0.00 0.22 0.00 73 1006.3
20260506081242 62 166 3.5 7.8 0.00 0.22 0.00 72 1006.3
20260506080741 62 183 4.3 7.8 0.00 0.22 0.00 73 1006.3
20260506080242 61 223 0.9 6.1 0.00 0.22 0.00 74 1006.2
20260506073242 60 180 4.3 9.6 0.00 0.22 0.00 75 1006.3
20260506072741 60 217 5.2 8.7 0.00 0.22 0.00 76 1006.3
20260506072242 60 181 4.3 7.8 0.00 0.22 0.00 76 1006.3
20260506071742 60 217 3.5 7.0 0.00 0.22 0.00 76 1006.2
20260506071241 59 171 1.7 6.1 0.00 0.22 0.00 78 1006.2
20260506070741 59 210 2.6 6.1 0.00 0.22 0.00 77 1006.1
20260506070243 59 210 3.5 6.1 0.00 0.22 0.00 78 1006.1
20260506062242 57 163 2.6 4.3 0.00 0.24 0.00 82 1006.4
20260506061743 57 198 2.6 4.3 0.00 0.24 0.00 82 1006.3
20260506061243 56 135 0.9 3.5 0.00 0.24 0.00 84 1006.3
20260506060742 56 229 0.0 3.5 0.00 0.24 0.00 85 1006.3
20260506060243 56 157 0.9 2.6 0.00 0.24 0.00 86 1006.3
20260506051241 50 62 0.0 0.0 0.00 0.24 0.00 89 1006.4
20260506050742 49 62 0.0 0.9 0.00 0.24 0.00 89 1006.5
20260506050242 49 63 0.9 0.9 0.00 0.24 0.00 89 1006.6
20260506044742 49 5 0.0 0.9 0.00 0.24 0.00 88 1006.5
20260506044243 49 45 0.0 0.9 0.00 0.24 0.00 88 1006.5
20260506043742 49 47 0.9 1.7 0.00 0.24 0.00 87 1006.5
20260506043242 49 316 0.9 1.7 0.00 0.24 0.00 87 1006.6
20260506042743 49 46 0.0 0.9 0.00 0.24 0.00 87 1006.7
20260506042242 49 111 0.0 0.0 0.00 0.24 0.00 86 1006.7
20260506041742 49 109 0.0 0.0 0.00 0.24 0.00 86 1006.7
20260506041241 49 105 0.0 0.9 0.00 0.24 0.00 86 1006.7
20260506040742 49 113 0.0 0.9 0.00 0.24 0.00 86 1006.6
20260506040241 50 190 0.0 0.0 0.00 0.24 0.00 86 1006.7
20260506035741 50 219 0.0 0.9 0.00 0.24 0.00 86 1006.7
20260506035243 50 209 0.0 1.7 0.00 0.24 0.00 86 1006.6
20260506034741 50 172 0.9 0.9 0.00 0.24 0.00 85 1006.7
20260506034242 50 167 0.0 0.0 0.00 0.24 0.00 85 1006.6
20260506033742 51 167 0.0 1.7 0.00 0.24 0.00 85 1006.7
20260506033242 51 150 0.0 1.7 0.00 0.24 0.00 85 1006.7
20260506032741 51 159 0.0 1.7 0.00 0.24 0.00 84 1006.8
20260506032241 51 40 0.0 0.9 0.00 0.24 0.00 84 1006.8
20260506031518 52 34 0.9 0.9 0.00 0.24 0.00 83 1006.8
20260506031017 52 360 0.9 0.9 0.00 0.24 0.00 83 1006.8
20260506030517 52 347 0.9 2.6 0.00 0.24 0.00 82 1006.8
20260506030017 53 57 0.0 0.9 0.00 0.24 0.00 81 1006.8
20260506025517 53 113 0.0 0.9 0.00 0.24 0.00 81 1006.9
20260506025018 54 114 0.9 0.9 0.00 0.24 0.00 81 1006.9
20260506024518 54 109 0.0 0.9 0.00 0.24 0.00 81 1007.0
20260506024017 55 109 0.9 1.7 0.00 0.24 0.00 80 1007.1
20260506023518 55 135 0.0 1.7 0.00 0.24 0.00 81 1007.2
20260506023019 55 257 1.7 2.6 0.00 0.24 0.00 80 1007.3
20260506022518 56 239 1.7 3.5 0.00 0.24 0.00 80 1007.3
20260506022018 56 246 1.7 4.3 0.00 0.24 0.00 80 1007.3
20260506021518 56 232 0.9 2.6 0.00 0.24 0.00 80 1007.3
20260506021018 56 232 1.7 5.2 0.00 0.24 0.00 80 1007.3
20260506020519 56 190 1.7 5.2 0.00 0.24 0.00 81 1007.4
20260506020017 56 190 4.3 6.1 0.00 0.24 0.00 81 1007.4
20260506015519 55 206 1.7 5.2 0.00 0.24 0.00 82 1007.4
20260506015018 55 185 0.9 2.6 0.00 0.24 0.00 83 1007.5
20260506014518 55 167 1.7 4.3 0.00 0.24 0.00 83 1007.5
20260506014017 55 188 1.7 3.5 0.00 0.24 0.00 84 1007.5
20260506013518 54 180 1.7 2.6 0.00 0.24 0.00 84 1007.4
20260506013019 54 122 1.7 3.5 0.00 0.24 0.00 84 1007.5
20260506012517 54 165 1.7 2.6 0.00 0.24 0.00 84 1007.5
20260506012019 54 181 0.9 3.5 0.00 0.24 0.00 84 1007.5
20260506011519 54 178 0.9 2.6 0.00 0.24 0.00 84 1007.4
20260506011018 55 178 0.0 1.7 0.00 0.24 0.00 84 1007.5
20260506010517 55 171 0.0 1.7 0.00 0.24 0.00 84 1007.5
20260506010017 55 170 0.0 1.7 0.00 0.24 0.00 83 1007.5
20260506005517 55 158 0.0 0.0 0.00 0.24 0.00 83 1007.5
20260506005017 55 158 0.0 0.9 0.00 0.24 0.00 83 1007.5
20260506004517 56 161 0.0 1.7 0.00 0.24 0.00 83 1007.5
20260506004018 56 166 1.7 2.6 0.00 0.24 0.00 83 1007.6
20260506003517 56 148 1.7 3.5 0.00 0.24 0.00 83 1007.7
20260506003017 56 163 1.7 4.3 0.00 0.24 0.00 83 1007.7
20260506002518 56 201 1.7 3.5 0.00 0.24 0.00 83 1007.7
20260506002018 56 175 0.9 2.6 0.00 0.24 0.00 83 1007.8
20260506001517 56 192 0.9 2.6 0.00 0.24 0.00 83 1007.9
20260506001017 56 153 0.9 4.3 0.00 0.24 0.00 83 1008.0
20260506000517 56 152 1.7 3.5 0.00 0.24 0.00 84 1008.2
20260506000017 56 177 1.7 3.5 0.00 0.24 0.00 84 1008.2
20260505235517 56 174 1.7 4.3 0.00 0.24 0.00 84 1008.3
20260505235017 55 188 2.6 4.3 0.00 0.24 0.00 84 1008.3
20260505234519 55 184 1.7 6.1 0.00 0.24 0.00 85 1008.3
20260505234018 55 236 1.7 2.6 0.00 0.24 0.00 84 1008.3
20260505233519 55 194 0.9 2.6 0.00 0.24 0.00 84 1008.1
20260505233019 55 184 0.9 1.7 0.00 0.24 0.00 85 1008.0
20260505232518 55 157 1.7 3.5 0.00 0.24 0.00 85 1008.0
20260505232019 56 153 1.7 3.5 0.00 0.24 0.00 84 1008.1
20260505231518 56 174 0.9 2.6 0.00 0.24 0.00 84 1008.1
20260505231019 56 192 0.0 2.6 0.00 0.24 0.00 84 1008.2
20260505230519 56 148 0.0 2.6 0.00 0.24 0.00 84 1008.2
20260505230017 56 172 0.9 2.6 0.00 0.24 0.00 84 1008.2
20260505225518 56 160 0.9 3.5 0.00 0.24 0.00 84 1008.3
20260505225018 56 142 1.7 2.6 0.00 0.24 0.00 84 1008.4
20260505224518 56 160 0.9 2.6 0.00 0.24 0.00 84 1008.4
20260505224019 56 155 1.7 3.5 0.00 0.24 0.00 84 1008.5
20260505223518 56 217 2.6 6.1 0.00 0.24 0.00 84 1008.6
20260505223018 56 165 2.6 6.1 0.00 0.24 0.00 84 1008.7
20260505222517 56 195 1.7 4.3 0.00 0.24 0.00 84 1008.7
20260505222018 56 177 1.7 5.2 0.00 0.24 0.00 85 1008.5
20260505221518 56 182 2.6 5.2 0.00 0.24 0.00 85 1008.5
20260505221017 56 175 5.2 9.6 0.00 0.24 0.00 85 1008.5
20260505220517 56 162 2.6 6.1 0.00 0.24 0.00 85 1008.4
20260505220018 56 182 2.6 6.1 0.00 0.24 0.00 85 1008.5
20260505215518 56 193 2.6 5.2 0.00 0.24 0.24 85 1008.4
20260505215018 56 167 2.6 5.2 0.00 0.24 0.24 85 1008.4
20260505214518 56 211 2.6 4.3 0.00 0.24 0.24 85 1008.3
20260505214018 56 166 4.3 7.0 0.00 0.24 0.24 85 1008.4
20260505213518 56 192 4.3 7.0 0.00 0.24 0.24 85 1008.4
20260505213018 56 193 4.3 8.7 0.00 0.24 0.24 85 1008.4
20260505212517 56 200 1.7 6.1 0.00 0.24 0.24 85 1008.4
20260505212018 56 205 0.9 3.5 0.00 0.24 0.24 85 1008.4
20260505211518 56 171 0.9 3.5 0.00 0.24 0.24 85 1008.3
20260505211017 56 143 1.7 3.5 0.00 0.24 0.24 85 1008.4
20260505210518 56 177 1.7 3.5 0.00 0.24 0.24 85 1008.4
20260505210019 57 176 1.7 4.3 0.00 0.24 0.24 85 1008.4
20260505205518 57 161 1.7 3.5 0.00 0.24 0.24 84 1008.4
20260505205019 57 171 2.6 4.3 0.00 0.24 0.24 85 1008.3
20260505204517 57 138 2.6 6.1 0.00 0.24 0.24 85 1008.3
20260505204019 57 155 3.5 6.1 0.00 0.24 0.24 85 1008.3
20260505203519 57 196 3.5 7.0 0.00 0.24 0.24 85 1008.3
20260505203017 57 206 3.5 7.0 0.00 0.24 0.24 85 1008.3
20260505202518 58 227 3.5 7.8 0.00 0.24 0.24 84 1008.2
20260505202017 58 159 3.5 5.2 0.00 0.24 0.24 85 1008.2
20260505201517 58 159 2.6 4.3 0.00 0.24 0.24 85 1008.1
20260505201018 58 171 3.5 5.2 0.00 0.24 0.24 84 1008.2
20260505200517 58 175 2.6 5.2 0.00 0.24 0.24 84 1008.1
20260505200018 58 188 3.5 6.1 0.00 0.24 0.24 84 1008.1
20260505195517 58 203 4.3 7.0 0.00 0.24 0.24 85 1008.0
20260505195017 58 165 2.6 6.1 0.00 0.24 0.24 85 1008.1
20260505194518 58 177 3.5 7.0 0.00 0.24 0.24 85 1008.0
20260505194018 58 199 2.6 7.0 0.00 0.24 0.24 85 1008.0
20260505193518 58 220 1.7 8.7 0.00 0.24 0.24 86 1008.0
20260505193018 58 165 2.6 5.2 0.00 0.24 0.24 86 1007.9
20260505192517 58 171 2.6 6.1 0.00 0.24 0.24 86 1007.9
20260505192018 58 155 4.3 6.1 0.00 0.24 0.24 87 1007.8
20260505191519 58 183 2.6 4.3 0.00 0.24 0.24 87 1007.8
20260505191018 58 189 2.6 3.5 0.00 0.24 0.24 87 1007.6
20260505190518 58 164 1.7 2.6 0.00 0.24 0.24 87 1007.6
20260505190018 58 165 0.9 2.6 0.00 0.24 0.24 87 1007.6
20260505185519 58 165 0.9 1.7 0.00 0.25 0.24 87 1007.6
20260505185017 58 150 1.7 2.6 0.00 0.25 0.24 86 1007.6
20260505184517 58 147 0.9 1.7 0.00 0.25 0.24 86 1007.6
20260505184019 58 179 0.0 2.6 0.00 0.25 0.24 86 1007.6
20260505183517 58 199 1.7 3.5 0.00 0.25 0.24 86 1007.6
20260505183018 58 184 1.7 3.5 0.00 0.25 0.24 86 1007.6
20260505182517 58 160 2.6 4.3 0.00 0.25 0.24 87 1007.5
20260505182017 58 172 1.7 3.5 0.00 0.25 0.24 87 1007.4
20260505181517 58 169 0.9 2.6 0.00 0.25 0.24 87 1007.3
20260505181017 58 182 0.0 2.6 0.00 0.25 0.24 87 1007.2
20260505180517 58 144 0.9 2.6 0.00 0.25 0.24 86 1007.3
20260505180017 59 183 0.9 1.7 0.00 0.25 0.24 86 1007.4
20260505175518 59 171 0.0 3.5 0.00 0.25 0.24 86 1007.3